Precipitable_Water
0.76 0.74 0.70 0.68 0.68 0.67 0.69 0.67 0.66 0.68 0.69 0.70 0.68 0.64 0.58 0.54 0.46 0.45 0.37 0.38 0.41 0.42 0.39 0.36 0.32 0.34 0.35 0.36 0.39 0.37 0.26 0.20 0.27 0.33 0.42 0.65 0.65 0.78 0.87 0.81 0.94 1.02 1.04 1.18 1.31
0.83 0.81 0.78 0.75 0.71 0.69 0.70 0.69 0.68 0.71 0.71 0.71 0.68 0.64 0.58 0.52 0.38 0.45 0.55 0.47 0.44 0.45 0.29 0.25 0.23 0.29 0.32 0.33 0.37 0.33 0.27 0.26 0.35 0.41 0.50 0.62 0.68 0.74 0.74 0.80 0.87 0.96 1.16 1.27 1.30
0.97 0.93 0.91 0.88 0.81 0.74 0.72 0.71 0.70 0.72 0.74 0.73 0.69 0.63 0.57 0.50 0.31 0.41 0.59 0.51 0.48 0.45 0.29 0.34 0.31 0.30 0.28 0.32 0.33 0.34 0.30 0.33 0.35 0.47 0.61 0.63 0.66 0.77 0.73 0.69 0.85 0.89 1.05 1.19 1.23
1.16 1.12 1.08 1.05 0.99 0.87 0.75 0.72 0.71 0.72 0.75 0.74 0.70 0.62 0.56 0.42 0.19 0.40 0.58 0.49 0.48 0.44 0.36 0.37 0.37 0.33 0.31 0.31 0.36 0.31 0.35 0.36 0.39 0.49 0.59 0.62 0.69 0.70 0.73 0.77 0.96 1.02 1.10 1.16 1.11
0.98 1.04 1.08 1.10 1.09 1.01 0.83 0.74 0.72 0.73 0.76 0.76 0.71 0.62 0.47 0.24 0.26 0.62 0.53 0.46 0.42 0.37 0.39 0.37 0.38 0.36 0.30 0.35 0.37 0.34 0.34 0.39 0.45 0.56 0.67 0.71 0.66 0.69 0.71 0.93 0.95 0.90 0.99 1.06 1.13
0.89 0.95 1.01 1.00 1.00 1.01 0.92 0.77 0.72 0.74 0.77 0.77 0.71 0.62 0.40 0.17 0.51 0.63 0.51 0.41 0.35 0.39 0.40 0.42 0.41 0.43 0.37 0.37 0.36 0.38 0.40 0.47 0.54 0.60 0.68 0.63 0.64 0.67 0.75 0.94 0.82 0.80 0.77 0.78 0.83
0.83 0.89 0.92 0.95 0.93 0.98 0.95 0.82 0.75 0.74 0.78 0.78 0.71 0.59 0.36 0.20 0.49 0.61 0.53 0.42 0.39 0.39 0.37 0.44 0.47 0.42 0.41 0.35 0.41 0.44 0.42 0.54 0.59 0.58 0.58 0.66 0.55 0.57 0.79 0.85 0.79 0.75 0.63 0.66 0.72
0.73 0.82 0.87 0.92 0.93 0.95 0.98 0.88 0.78 0.76 0.78 0.78 0.71 0.56 0.27 0.31 0.50 0.52 0.52 0.46 0.44 0.42 0.41 0.43 0.48 0.43 0.41 0.42 0.38 0.39 0.41 0.35 0.56 0.60 0.62 0.58 0.44 0.65 0.84 0.74 0.73 0.69 0.72 0.71 0.81
0.54 0.71 0.76 0.87 0.93 0.92 0.96 0.90 0.77 0.78 0.81 0.79 0.60 0.49 0.23 0.36 0.34 0.45 0.51 0.46 0.47 0.47 0.50 0.47 0.45 0.38 0.39 0.34 0.31 0.34 0.29 0.34 0.45 0.60 0.55 0.53 0.45 0.67 0.86 0.78 0.75 0.69 0.74 0.72 0.77
0.50 0.63 0.73 0.79 0.84 0.88 0.93 0.87 0.75 0.81 0.80 0.76 0.65 0.37 0.26 0.27 0.40 0.48 0.57 0.54 0.47 0.48 0.45 0.41 0.39 0.32 0.32 0.32 0.25 0.29 0.30 0.34 0.38 0.47 0.53 0.50 0.47 0.62 0.77 0.74 0.72 0.71 0.74 0.73 0.73
0.57 0.65 0.76 0.78 0.83 0.84 0.87 0.71 0.55 0.56 0.64 0.46 0.37 0.29 0.27 0.39 0.50 0.43 0.51 0.50 0.48 0.44 0.33 0.38 0.30 0.23 0.29 0.35 0.36 0.37 0.34 0.32 0.38 0.42 0.40 0.39 0.42 0.50 0.67 0.70 0.68 0.76 0.73 0.69 0.71
0.60 0.62 0.85 0.93 1.02 0.88 0.80 0.53 0.60 0.65 0.44 0.53 0.51 0.49 0.43 0.48 0.37 0.41 0.49 0.37 0.37 0.32 0.39 0.37 0.30 0.34 0.39 0.39 0.37 0.36 0.33 0.33 0.38 0.40 0.35 0.35 0.36 0.45 0.58 0.64 0.63 0.66 0.71 0.67 0.71
0.57 0.54 0.72 0.93 0.97 0.81 0.70 0.61 0.75 0.80 0.45 0.41 0.48 0.44 0.36 0.43 0.34 0.35 0.41 0.37 0.34 0.33 0.34 0.32 0.35 0.42 0.36 0.38 0.36 0.36 0.34 0.35 0.35 0.35 0.36 0.32 0.29 0.35 0.48 0.62 0.66 0.70 0.73 0.72 0.70
0.55 0.50 0.64 0.87 0.76 0.67 0.54 0.81 0.91 0.83 0.33 0.37 0.38 0.40 0.40 0.39 0.30 0.43 0.42 0.37 0.34 0.31 0.37 0.35 0.40 0.38 0.36 0.36 0.39 0.33 0.41 0.39 0.35 0.32 0.23 0.34 0.22 0.29 0.37 0.48 0.57 0.62 0.64 0.66 0.61
0.53 0.52 0.56 0.81 0.70 0.61 0.77 0.90 0.82 0.68 0.24 0.37 0.42 0.57 0.40 0.28 0.31 0.35 0.45 0.38 0.30 0.32 0.37 0.33 0.36 0.37 0.34 0.35 0.41 0.35 0.42 0.39 0.36 0.32 0.31 0.31 0.25 0.26 0.34 0.37 0.47 0.54 0.61 0.66 0.71
0.47 0.50 0.54 0.65 0.76 0.72 0.97 0.92 0.80 0.40 0.23 0.30 0.43 0.36 0.31 0.29 0.32 0.36 0.38 0.40 0.37 0.32 0.36 0.37 0.45 0.44 0.39 0.42 0.41 0.43 0.38 0.37 0.36 0.31 0.23 0.30 0.29 0.24 0.27 0.31 0.40 0.51 0.59 0.64 0.70
0.49 0.50 0.51 0.67 0.48 0.81 0.94 0.84 0.46 0.32 0.38 0.33 0.36 0.35 0.27 0.24 0.29 0.31 0.30 0.29 0.24 0.22 0.24 0.33 0.37 0.43 0.45 0.38 0.41 0.39 0.33 0.25 0.20 0.22 0.21 0.33 0.29 0.26 0.31 0.35 0.38 0.44 0.52 0.57 0.62
0.50 0.55 0.50 0.59 0.70 0.73 0.76 0.60 0.34 0.38 0.36 0.41 0.42 0.33 0.23 0.25 0.27 0.30 0.28 0.25 0.30 0.26 0.27 0.25 0.25 0.37 0.43 0.40 0.35 0.35 0.32 0.25 0.18 0.18 0.22 0.33 0.23 0.22 0.35 0.40 0.43 0.46 0.47 0.50 0.52
0.52 0.50 0.45 0.53 0.72 0.72 0.55 0.39 0.37 0.38 0.39 0.30 0.38 0.34 0.28 0.26 0.26 0.28 0.28 0.26 0.28 0.27 0.24 0.26 0.26 0.42 0.45 0.46 0.44 0.36 0.31 0.36 0.29 0.33 0.26 0.26 0.27 0.29 0.33 0.41 0.44 0.45 0.48 0.48 0.53
0.46 0.42 0.38 0.57 0.69 0.61 0.43 0.32 0.44 0.46 0.44 0.45 0.27 0.36 0.28 0.26 0.24 0.25 0.26 0.30 0.27 0.30 0.35 0.32 0.25 0.39 0.44 0.48 0.47 0.40 0.42 0.30 0.31 0.21 0.20 0.24 0.25 0.22 0.23 0.36 0.42 0.39 0.40 0.44 0.46
0.49 0.33 0.38 0.60 0.71 0.46 0.26 0.31 0.40 0.50 0.48 0.45 0.40 0.35 0.33 0.30 0.26 0.24 0.25 0.28 0.29 0.28 0.33 0.33 0.29 0.28 0.38 0.34 0.31 0.35 0.32 0.32 0.33 0.31 0.23 0.20 0.21 0.33 0.24 0.33 0.34 0.35 0.38 0.36 0.41
0.46 0.25 0.46 0.59 0.36 0.36 0.29 0.36 0.41 0.45 0.49 0.50 0.51 0.43 0.40 0.34 0.29 0.25 0.23 0.25 0.32 0.31 0.26 0.30 0.28 0.24 0.26 0.37 0.41 0.36 0.32 0.34 0.27 0.27 0.31 0.26 0.18 0.34 0.31 0.35 0.39 0.35 0.34 0.37 0.41
0.36 0.37 0.58 0.45 0.24 0.25 0.31 0.38 0.37 0.36 0.43 0.43 0.38 0.46 0.49 0.39 0.31 0.31 0.28 0.32 0.32 0.30 0.28 0.32 0.28 0.22 0.23 0.30 0.38 0.34 0.37 0.38 0.37 0.36 0.27 0.20 0.18 0.33 0.39 0.34 0.35 0.33 0.34 0.36 0.39
0.38 0.28 0.46 0.48 0.25 0.25 0.26 0.30 0.34 0.39 0.42 0.44 0.37 0.45 0.46 0.42 0.42 0.32 0.30 0.37 0.37 0.34 0.37 0.37 0.29 0.24 0.18 0.19 0.29 0.31 0.33 0.37 0.36 0.28 0.25 0.24 0.24 0.31 0.32 0.33 0.33 0.33 0.33 0.35 0.39
0.40 0.32 0.39 0.28 0.25 0.27 0.28 0.28 0.30 0.29 0.39 0.41 0.33 0.37 0.43 0.38 0.40 0.34 0.35 0.37 0.41 0.41 0.38 0.36 0.27 0.29 0.29 0.30 0.32 0.31 0.31 0.33 0.31 0.32 0.26 0.25 0.27 0.32 0.34 0.35 0.36 0.35 0.34 0.33 0.38
0.35 0.33 0.39 0.34 0.30 0.25 0.31 0.26 0.27 0.30 0.35 0.33 0.32 0.32 0.40 0.44 0.44 0.36 0.39 0.36 0.33 0.41 0.38 0.40 0.30 0.32 0.30 0.36 0.35 0.33 0.30 0.29 0.28 0.26 0.27 0.28 0.25 0.31 0.36 0.40 0.36 0.37 0.39 0.39 0.42
0.48 0.49 0.41 0.32 0.34 0.28 0.22 0.25 0.28 0.33 0.37 0.43 0.34 0.31 0.31 0.42 0.52 0.52 0.53 0.51 0.46 0.37 0.35 0.35 0.31 0.31 0.30 0.38 0.37 0.29 0.28 0.27 0.25 0.26 0.24 0.20 0.24 0.31 0.31 0.37 0.40 0.43 0.44 0.44 0.46
Wind_Speed
28 27 26 25 25 24 24 24 24 24 25 25 25 25 25 24 23 19 17 17 17 15 11 10 6 4 3 4 4 5 4 6 6 5 6 5 5 5 6 6 8 10 10 11 10
28 27 26 26 25 25 24 24 24 24 24 24 24 24 24 23 19 16 17 17 15 12 10 7 4 2 2 2 4 5 5 8 7 5 5 5 4 3 5 6 6 6 8 9 9
29 28 27 26 26 25 25 25 25 24 24 24 23 23 22 19 16 15 16 15 12 10 7 6 3 2 1 2 5 6 7 7 8 6 5 4 6 5 5 7 8 8 9 9 9
32 30 29 28 27 27 26 25 25 24 24 23 23 22 21 15 12 14 17 12 9 7 5 4 3 2 0 1 4 5 8 8 7 6 4 4 4 4 4 5 5 7 9 11 10
33 33 31 30 28 28 27 26 25 24 24 22 21 21 16 14 13 13 13 9 7 5 4 2 2 1 1 2 2 4 5 5 6 6 3 2 1 1 2 3 4 4 3 9 11
33 32 32 31 30 28 27 26 25 24 23 22 20 19 15 13 11 10 9 8 7 4 4 2 2 2 2 3 2 3 2 2 3 6 4 3 1 1 2 5 8 7 8 12 14
33 32 32 30 29 28 27 26 25 24 23 21 19 17 14 14 9 8 8 8 6 4 3 3 3 2 3 3 2 2 2 1 2 4 4 4 2 3 8 9 8 7 9 11 13
32 31 31 31 30 28 28 27 26 25 23 20 18 16 14 11 10 9 8 8 6 5 5 5 4 5 4 3 2 4 3 1 1 3 4 2 3 5 8 9 8 6 8 9 11
30 30 29 29 29 28 28 28 27 26 23 20 17 15 14 11 9 9 8 6 5 6 6 6 6 5 4 3 2 2 3 2 2 3 5 4 3 6 7 7 6 6 8 8 9
32 30 29 28 27 28 27 28 27 24 21 19 18 15 14 10 9 8 7 6 5 6 6 4 5 4 5 4 5 4 3 2 3 3 4 3 4 5 8 6 7 7 9 9 9
36 34 31 28 27 26 26 23 22 22 20 20 16 15 13 12 10 9 6 4 5 5 4 3 3 7 9 8 7 5 5 5 7 6 6 9 6 6 9 7 6 9 9 10 10
37 35 34 32 30 27 24 22 21 21 22 22 23 21 19 14 12 11 8 5 4 4 2 2 3 7 7 8 7 7 5 5 5 4 8 5 6 6 9 9 9 9 10 11 10
39 36 34 31 29 27 26 24 21 21 22 22 22 20 19 16 15 13 10 7 5 5 4 3 3 5 7 8 4 6 5 6 7 2 2 3 4 6 8 9 10 10 10 11 12
41 38 34 31 28 25 23 21 22 20 19 20 18 20 18 17 15 15 13 9 6 8 5 6 7 7 7 7 8 5 5 5 6 3 5 4 5 7 9 11 11 12 12 12 13
42 39 36 33 27 24 21 18 17 17 15 15 18 17 18 19 13 16 13 10 9 8 5 6 6 8 9 8 9 9 4 4 4 4 4 4 2 6 6 11 15 15 16 16 15
44 40 37 35 33 27 24 19 18 15 19 14 16 18 18 19 14 14 14 11 10 9 10 10 8 8 10 9 9 6 6 3 4 5 5 6 4 6 6 11 16 17 17 18 16
47 42 39 34 31 31 27 22 21 21 15 17 15 18 19 18 18 14 16 14 11 9 11 9 10 10 10 9 8 7 3 4 5 5 8 7 6 10 13 13 13 13 16 19 19
50 46 43 39 34 29 27 25 27 22 25 12 17 17 19 17 21 15 14 15 13 10 8 10 10 11 11 12 11 9 8 6 6 6 9 9 10 10 10 11 12 13 13 14 16
51 48 46 42 37 33 29 31 27 24 19 22 14 18 19 19 17 17 16 16 16 15 12 10 11 10 11 11 9 10 8 8 5 7 8 11 12 13 7 8 8 10 9 10 12
52 49 49 45 40 36 34 37 30 25 21 17 22 19 21 19 17 21 18 17 16 17 15 14 9 10 12 11 12 10 10 7 8 8 10 10 11 10 11 8 6 6 8 8 9
51 48 48 49 43 39 39 37 37 28 24 21 20 19 20 19 19 17 19 14 19 16 14 13 13 13 12 15 14 11 11 9 10 10 10 10 12 11 11 9 8 9 9 9 9
51 48 49 52 45 45 43 36 37 36 28 25 20 22 19 20 18 18 19 17 16 19 15 16 14 15 17 14 14 14 14 12 11 12 12 11 14 13 13 12 12 11 11 11 11
51 46 49 54 47 46 42 42 34 35 36 29 27 23 18 18 18 18 18 17 17 15 15 16 14 13 14 14 15 15 14 11 10 10 13 9 12 10 11 12 14 15 14 13 13
50 46 44 51 55 49 46 41 43 35 32 33 26 26 21 19 19 18 18 15 18 18 14 13 14 15 17 17 14 14 15 14 13 11 12 14 16 15 17 16 16 16 15 15 15
52 48 48 51 56 50 47 41 42 39 38 34 29 30 23 21 17 18 17 16 15 16 15 16 16 16 16 17 16 16 16 16 16 16 15 16 15 16 17 16 17 16 15 14 14
49 48 50 43 51 54 47 48 45 44 34 38 31 30 29 24 19 15 16 18 18 17 16 16 14 14 14 14 15 16 17 16 16 16 18 19 19 18 16 14 13 13 12 11 12
52 50 47 51 50 51 56 46 45 40 42 34 38 31 28 32 27 21 19 19 17 19 19 18 15 13 15 13 13 16 18 18 19 19 19 20 21 18 17 16 16 14 12 11 11
Wind_Direction
273 276 279 282 286 290 294 298 301 306 310 312 317 320 322 323 324 328 329 331 334 333 331 333 322 297 257 250 225 204 193 208 218 207 242 249 238 239 234 233 243 252 246 230 224
270 273 276 279 283 288 291 295 299 303 308 311 315 319 321 323 324 324 329 332 332 336 336 336 327 297 281 243 220 189 192 209 212 225 257 249 247 235 237 239 259 241 227 221 220
268 270 273 277 281 285 288 292 296 300 304 309 312 317 319 321 322 324 332 329 332 340 345 355 2 301 286 224 197 194 205 222 235 242 246 243 242 262 223 252 249 225 228 227 221
266 268 271 274 278 281 285 289 293 297 302 305 310 314 315 315 318 327 332 331 333 338 348 360 6 6 135 197 203 212 233 232 250 228 229 253 234 251 272 269 231 236 223 222 204
265 266 269 272 276 278 282 286 289 293 298 302 306 310 310 309 306 324 337 343 338 332 336 339 357 11 228 202 244 222 245 235 226 205 220 197 274 256 282 203 167 127 153 187 199
265 265 267 270 273 275 279 282 285 289 293 297 300 305 303 299 306 320 335 341 337 331 316 307 301 289 246 233 211 243 229 225 193 196 198 158 154 4 162 145 132 123 119 124 138
264 264 265 267 270 273 277 280 282 284 288 291 294 297 294 281 294 309 321 330 328 312 303 279 280 281 268 252 248 213 164 118 157 181 180 155 76 87 142 152 147 133 136 131 134
262 264 264 265 268 271 274 278 279 281 281 283 286 288 281 280 278 286 301 318 317 306 292 279 266 266 238 247 235 183 174 166 216 181 162 129 122 120 143 144 162 155 138 138 145
261 262 264 265 265 268 271 276 277 277 273 274 277 278 274 275 267 275 280 300 312 307 296 281 257 258 239 207 186 175 195 203 189 204 153 168 134 165 151 148 158 171 161 158 153
260 260 263 265 265 267 270 274 273 270 267 266 266 271 263 259 259 269 274 268 306 313 308 280 246 244 215 188 200 202 191 201 173 200 207 196 196 172 182 173 178 176 171 173 169
257 258 259 261 263 265 270 271 268 263 260 253 255 256 259 258 253 254 258 254 299 324 312 298 237 218 206 197 196 212 211 228 235 235 223 230 229 211 197 194 177 182 183 178 180
253 255 255 257 260 262 264 262 262 260 264 254 253 253 250 246 249 247 230 246 264 271 308 336 225 202 200 198 202 212 226 256 252 278 224 228 241 225 201 205 194 188 195 192 189
249 250 253 254 253 255 256 259 257 262 258 258 250 244 237 227 234 238 223 234 249 238 238 220 230 199 199 206 214 221 230 255 232 247 223 217 251 222 209 210 206 208 206 208 198
246 247 248 246 246 248 252 252 256 250 257 251 248 244 225 221 234 226 222 225 243 228 224 251 235 220 211 217 204 225 224 243 226 218 221 223 247 244 223 218 223 217 213 210 208
243 243 241 237 239 242 242 252 239 242 255 242 236 231 218 212 223 223 219 226 224 222 221 240 227 219 222 219 203 225 233 244 229 212 224 267 249 253 220 234 236 233 226 225 223
238 238 236 235 236 237 236 243 236 236 241 244 222 217 210 214 222 213 215 225 232 231 238 241 244 224 222 213 206 234 226 249 244 237 253 263 244 254 241 242 241 242 237 235 232
233 232 230 231 232 232 235 234 234 230 239 231 221 213 211 210 213 214 213 216 223 229 235 241 235 236 223 213 219 214 227 262 262 262 246 259 267 260 274 268 253 254 243 239 237
229 228 227 227 225 226 226 226 232 234 226 236 218 209 209 207 216 216 212 219 231 228 226 222 247 224 217 216 215 227 221 222 252 257 268 273 268 279 286 280 262 250 256 246 241
225 226 225 223 220 221 221 225 228 225 224 221 218 209 214 215 212 216 219 222 224 222 218 217 241 231 216 217 221 227 234 231 239 277 278 271 282 284 289 296 269 272 262 246 244
222 223 223 217 214 217 222 227 226 224 224 220 217 212 208 213 212 215 218 228 227 222 222 227 229 227 221 223 232 234 217 242 267 262 268 276 278 264 298 286 282 271 266 259 252
217 220 220 212 210 216 222 223 224 223 218 219 220 220 217 212 214 219 223 234 222 220 223 224 227 238 230 226 225 232 242 259 257 253 256 278 268 261 275 258 263 265 266 267 259
213 217 213 205 209 217 222 219 222 220 217 220 221 218 219 215 216 219 221 225 219 216 218 230 227 232 235 243 233 240 243 246 256 254 260 266 274 267 268 262 259 272 267 266 263
211 214 209 205 210 216 220 222 223 220 217 216 218 218 218 221 222 220 223 229 215 216 218 221 233 239 256 243 240 244 244 244 254 257 251 257 268 284 275 274 265 267 273 268 258
207 208 206 208 213 216 214 218 218 219 219 216 217 219 218 224 225 226 221 223 218 222 225 223 232 228 235 232 231 240 239 245 247 254 257 259 270 278 276 275 275 275 271 265 257
206 209 207 208 210 214 214 215 214 216 215 213 217 216 214 219 225 221 221 221 228 225 228 225 234 233 241 236 238 245 243 242 246 253 252 266 259 272 278 276 273 275 273 261 253
206 207 207 212 209 211 213 214 212 211 211 214 214 213 216 216 216 214 223 224 225 226 224 231 234 231 236 238 242 246 248 248 255 257 260 262 265 270 279 279 281 274 272 267 266
205 205 206 209 205 208 214 214 213 210 217 215 217 219 219 222 228 237 232 231 232 227 226 224 228 230 238 247 249 260 248 254 261 260 257 256 262 265 270 275 274 271 265 265 271